| time (UTC) | temp F | wind direction | speed MPH | gust MPH | rain 1hr in | rain 24hr in | rain mn in | humidity % | barometer mb |
| 20260906120004 | 78 | 0 | 0.0 | 0.0 | 0.00 | 0.00 | 0.00 | 86 | 1013.7 |
| 20260906115504 | 78 | 0 | 0.0 | 0.0 | 0.00 | 0.00 | 0.00 | 86 | 1013.7 |
| 20260906115003 | 78 | 0 | 0.0 | 0.0 | 0.00 | 0.00 | 0.00 | 85 | 1013.6 |
| 20260906114504 | 78 | 0 | 0.0 | 0.0 | 0.00 | 0.00 | 0.00 | 85 | 1013.5 |
| 20260906114004 | 79 | 0 | 0.0 | 0.0 | 0.00 | 0.00 | 0.00 | 85 | 1013.5 |
| 20260906113503 | 79 | 0 | 0.0 | 0.0 | 0.00 | 0.00 | 0.00 | 84 | 1013.3 |
| 20260906112504 | 79 | 0 | 0.0 | 0.0 | 0.00 | 0.00 | 0.00 | 84 | 1013.1 |
| 20260906112004 | 79 | 0 | 0.0 | 0.0 | 0.00 | 0.00 | 0.00 | 84 | 1013.1 |
| 20260906111004 | 79 | 0 | 0.0 | 0.0 | 0.00 | 0.00 | 0.00 | 84 | 1013.1 |
| 20260906110004 | 79 | 0 | 0.0 | 0.0 | 0.00 | 0.00 | 0.00 | 83 | 1013.1 |
| 20260906105504 | 79 | 0 | 0.0 | 0.0 | 0.00 | 0.00 | 0.00 | 83 | 1013.2 |
| 20260906105004 | 80 | 0 | 0.0 | 0.0 | 0.00 | 0.00 | 0.00 | 83 | 1013.2 |
| 20260906104503 | 80 | 0 | 0.0 | 0.0 | 0.00 | 0.00 | 0.00 | 83 | 1013.1 |
| 20260906104004 | 80 | 0 | 0.0 | 1.0 | 0.00 | 0.00 | 0.00 | 83 | 1013.1 |
| 20260906103504 | 80 | 0 | 0.0 | 1.0 | 0.00 | 0.00 | 0.00 | 83 | 1013.1 |
| 20260906103004 | 80 | 0 | 0.0 | 0.0 | 0.00 | 0.00 | 0.00 | 83 | 1013.1 |
| 20260906102004 | 80 | 0 | 0.0 | 0.0 | 0.00 | 0.00 | 0.00 | 83 | 1013.0 |
| 20260906101504 | 80 | 0 | 0.0 | 0.0 | 0.00 | 0.00 | 0.00 | 83 | 1012.8 |
| 20260906101004 | 80 | 0 | 0.0 | 1.0 | 0.00 | 0.00 | 0.00 | 82 | 1012.8 |
| 20260906100503 | 80 | 0 | 0.0 | 1.0 | 0.00 | 0.00 | 0.00 | 82 | 1012.8 |
| 20260906100004 | 80 | 0 | 0.0 | 1.0 | 0.00 | 0.00 | 0.00 | 82 | 1012.9 |
| 20260906095004 | 80 | 0 | 0.0 | 4.0 | 0.00 | 0.00 | 0.00 | 82 | 1013.0 |
| 20260906094504 | 80 | 0 | 0.0 | 4.0 | 0.00 | 0.00 | 0.00 | 82 | 1013.1 |
| 20260906094003 | 80 | 0 | 0.0 | 4.0 | 0.00 | 0.00 | 0.00 | 82 | 1013.1 |
| 20260906093004 | 80 | 0 | 0.0 | 6.0 | 0.00 | 0.00 | 0.00 | 81 | 1013.0 |
| 20260906092504 | 80 | 0 | 0.0 | 3.0 | 0.00 | 0.00 | 0.00 | 81 | 1012.9 |
| 20260906092004 | 80 | 0 | 0.0 | 3.0 | 0.00 | 0.00 | 0.00 | 81 | 1012.9 |
| 20260906091504 | 80 | 0 | 0.0 | 3.0 | 0.00 | 0.00 | 0.00 | 81 | 1012.9 |
| 20260906091004 | 80 | 0 | 0.0 | 3.0 | 0.00 | 0.00 | 0.00 | 81 | 1012.9 |
| 20260906090504 | 81 | 0 | 0.0 | 0.0 | 0.00 | 0.00 | 0.00 | 80 | 1012.9 |
| 20260906090003 | 81 | 0 | 0.0 | 0.0 | 0.00 | 0.00 | 0.00 | 80 | 1013.0 |
| 20260906085504 | 81 | 0 | 0.0 | 5.0 | 0.00 | 0.00 | 0.00 | 80 | 1012.9 |
| 20260906085004 | 81 | 0 | 0.0 | 5.0 | 0.00 | 0.00 | 0.00 | 80 | 1012.9 |
| 20260906084503 | 81 | 0 | 0.0 | 2.0 | 0.00 | 0.00 | 0.00 | 80 | 1013.0 |
| 20260906084003 | 81 | 0 | 0.0 | 3.0 | 0.00 | 0.00 | 0.00 | 79 | 1013.0 |
| 20260906083504 | 81 | 201 | 1.0 | 3.0 | 0.00 | 0.00 | 0.00 | 79 | 1013.0 |
| 20260906083004 | 82 | 204 | 1.0 | 3.0 | 0.00 | 0.00 | 0.00 | 79 | 1013.0 |
| 20260906082503 | 82 | 204 | 1.0 | 2.0 | 0.00 | 0.00 | 0.00 | 79 | 1012.9 |
| 20260906082003 | 82 | 203 | 1.0 | 4.0 | 0.00 | 0.00 | 0.00 | 78 | 1012.9 |
| 20260906081504 | 82 | 205 | 1.0 | 5.0 | 0.00 | 0.00 | 0.00 | 78 | 1013.0 |
| 20260906081004 | 82 | 215 | 1.0 | 5.0 | 0.00 | 0.00 | 0.00 | 78 | 1013.1 |
| 20260906080504 | 82 | 224 | 1.0 | 3.0 | 0.00 | 0.00 | 0.00 | 78 | 1013.0 |
| 20260906080004 | 82 | 0 | 0.0 | 3.0 | 0.00 | 0.00 | 0.00 | 78 | 1013.1 |
| 20260906075504 | 82 | 0 | 0.0 | 3.0 | 0.00 | 0.00 | 0.00 | 78 | 1013.2 |
| 20260906075004 | 82 | 0 | 0.0 | 3.0 | 0.00 | 0.00 | 0.00 | 78 | 1013.3 |
| 20260906074503 | 82 | 0 | 0.0 | 4.0 | 0.00 | 0.00 | 0.00 | 78 | 1013.3 |
| 20260906074004 | 82 | 0 | 0.0 | 4.0 | 0.00 | 0.00 | 0.00 | 77 | 1013.4 |
| 20260906073504 | 82 | 0 | 0.0 | 3.0 | 0.00 | 0.00 | 0.00 | 77 | 1013.4 |
| 20260906073003 | 83 | 0 | 0.0 | 2.0 | 0.00 | 0.00 | 0.00 | 77 | 1013.5 |
| 20260906072504 | 83 | 0 | 0.0 | 3.0 | 0.00 | 0.00 | 0.00 | 77 | 1013.5 |
| 20260906072004 | 83 | 253 | 1.0 | 4.0 | 0.00 | 0.00 | 0.00 | 77 | 1013.6 |
| 20260906071504 | 83 | 251 | 1.0 | 5.0 | 0.00 | 0.00 | 0.00 | 77 | 1013.6 |
| 20260906071003 | 83 | 237 | 1.0 | 5.0 | 0.00 | 0.00 | 0.00 | 76 | 1013.7 |
| 20260906070504 | 83 | 0 | 0.0 | 4.0 | 0.00 | 0.00 | 0.00 | 76 | 1013.7 |
| 20260906065003 | 83 | 0 | 0.0 | 5.0 | 0.00 | 0.00 | 0.00 | 76 | 1013.7 |
| 20260906064004 | 83 | 0 | 0.0 | 3.0 | 0.00 | 0.00 | 0.00 | 76 | 1013.9 |
| 20260906063504 | 84 | 207 | 1.0 | 4.0 | 0.00 | 0.00 | 0.00 | 76 | 1014.0 |
| 20260906063003 | 84 | 207 | 1.0 | 6.0 | 0.00 | 0.00 | 0.00 | 76 | 1014.0 |
| 20260906062504 | 84 | 206 | 1.0 | 7.0 | 0.00 | 0.00 | 0.00 | 75 | 1014.0 |
| 20260906062004 | 84 | 212 | 1.0 | 7.0 | 0.00 | 0.00 | 0.00 | 75 | 1014.1 |
| 20260906061503 | 84 | 227 | 1.0 | 6.0 | 0.00 | 0.00 | 0.00 | 75 | 1014.1 |
| 20260906061003 | 84 | 237 | 1.0 | 4.0 | 0.00 | 0.00 | 0.00 | 75 | 1014.1 |
| 20260906060504 | 84 | 0 | 0.0 | 3.0 | 0.00 | 0.00 | 0.00 | 74 | 1014.2 |
| 20260906055503 | 84 | 217 | 1.0 | 6.0 | 0.00 | 0.00 | 0.00 | 74 | 1014.1 |
| 20260906055003 | 84 | 235 | 1.0 | 5.0 | 0.00 | 0.00 | 0.00 | 74 | 1014.0 |
| 20260906054504 | 84 | 241 | 1.0 | 3.0 | 0.00 | 0.00 | 0.00 | 74 | 1014.1 |
| 20260906053503 | 84 | 0 | 0.0 | 3.0 | 0.00 | 0.00 | 0.00 | 73 | 1014.0 |
| 20260906053003 | 84 | 0 | 0.0 | 4.0 | 0.00 | 0.00 | 0.00 | 73 | 1014.0 |
| 20260906052504 | 85 | 242 | 1.0 | 4.0 | 0.00 | 0.00 | 0.00 | 73 | 1013.9 |
| 20260906052004 | 85 | 243 | 1.0 | 4.0 | 0.00 | 0.00 | 0.00 | 73 | 1013.9 |
| 20260906051503 | 85 | 240 | 1.0 | 6.0 | 0.00 | 0.00 | 0.00 | 73 | 1013.9 |
| 20260906051004 | 85 | 194 | 1.0 | 6.0 | 0.00 | 0.00 | 0.00 | 73 | 1014.1 |
| 20260906050504 | 84 | 0 | 0.0 | 3.0 | 0.00 | 0.00 | 0.00 | 73 | 1014.2 |
| 20260906045504 | 84 | 0 | 0.0 | 2.0 | 0.00 | 0.00 | 0.00 | 73 | 1014.2 |
| 20260906045003 | 84 | 0 | 0.0 | 2.0 | 0.00 | 0.00 | 0.00 | 73 | 1014.2 |
| 20260906044503 | 84 | 0 | 0.0 | 5.0 | 0.00 | 0.00 | 0.00 | 73 | 1014.3 |
| 20260906043504 | 84 | 0 | 0.0 | 2.0 | 0.00 | 0.00 | 0.00 | 72 | 1014.2 |
| 20260906043003 | 84 | 0 | 0.0 | 2.0 | 0.00 | 0.00 | 0.00 | 72 | 1014.1 |
| 20260906042003 | 84 | 0 | 0.0 | 1.0 | 0.00 | 0.00 | 0.00 | 71 | 1014.1 |
| 20260906041504 | 84 | 0 | 0.0 | 3.0 | 0.00 | 0.00 | 0.00 | 71 | 1013.9 |
| 20260906041004 | 84 | 103 | 1.0 | 3.0 | 0.00 | 0.00 | 0.00 | 71 | 1013.9 |
| 20260906035504 | 85 | 95 | 1.0 | 3.0 | 0.00 | 0.00 | 0.00 | 69 | 1014.1 |
| 20260906035004 | 85 | 88 | 1.0 | 6.0 | 0.00 | 0.00 | 0.00 | 69 | 1014.1 |
| 20260906034504 | 85 | 89 | 1.0 | 6.0 | 0.00 | 0.00 | 0.00 | 68 | 1014.1 |
| 20260906034003 | 85 | 0 | 0.0 | 5.0 | 0.00 | 0.00 | 0.00 | 68 | 1014.1 |
| 20260906033503 | 86 | 0 | 0.0 | 3.0 | 0.00 | 0.00 | 0.00 | 67 | 1014.1 |
| 20260906033004 | 86 | 89 | 1.0 | 5.0 | 0.00 | 0.00 | 0.00 | 67 | 1014.0 |
| 20260906032504 | 86 | 91 | 2.0 | 6.0 | 0.00 | 0.00 | 0.00 | 66 | 1013.9 |
| 20260906032003 | 86 | 90 | 2.0 | 6.0 | 0.00 | 0.00 | 0.00 | 66 | 1013.8 |
| 20260906031504 | 86 | 81 | 2.0 | 6.0 | 0.00 | 0.00 | 0.00 | 65 | 1013.7 |
| 20260906031004 | 87 | 89 | 2.0 | 6.0 | 0.00 | 0.00 | 0.00 | 65 | 1013.6 |
| 20260906030504 | 87 | 99 | 2.0 | 6.0 | 0.00 | 0.00 | 0.00 | 64 | 1013.6 |
| 20260906025504 | 87 | 101 | 3.0 | 9.0 | 0.00 | 0.00 | 0.00 | 63 | 1013.5 |
| 20260906025004 | 88 | 100 | 2.0 | 9.0 | 0.00 | 0.00 | 0.00 | 63 | 1013.3 |
| 20260906024504 | 88 | 95 | 2.0 | 8.0 | 0.00 | 0.00 | 0.00 | 62 | 1013.2 |
| 20260906024004 | 88 | 94 | 3.0 | 10.0 | 0.00 | 0.00 | 0.00 | 62 | 1013.1 |
| 20260906023503 | 88 | 99 | 3.0 | 10.0 | 0.00 | 0.00 | 0.00 | 61 | 1013.1 |
| 20260906023003 | 89 | 94 | 3.0 | 7.0 | 0.00 | 0.00 | 0.00 | 60 | 1012.9 |
| 20260906022504 | 89 | 90 | 2.0 | 7.0 | 0.00 | 0.00 | 0.00 | 60 | 1012.8 |
| 20260906022004 | 89 | 94 | 2.0 | 7.0 | 0.00 | 0.00 | 0.00 | 59 | 1012.5 |
| 20260906021503 | 89 | 102 | 3.0 | 9.0 | 0.00 | 0.00 | 0.00 | 59 | 1012.4 |
| 20260906020504 | 89 | 100 | 1.0 | 7.0 | 0.00 | 0.00 | 0.00 | 59 | 1012.3 |
| 20260906020003 | 90 | 103 | 2.0 | 7.0 | 0.00 | 0.00 | 0.00 | 59 | 1012.3 |
| 20260906015503 | 90 | 110 | 2.0 | 8.0 | 0.00 | 0.00 | 0.00 | 58 | 1012.2 |
| 20260906015004 | 90 | 111 | 2.0 | 8.0 | 0.00 | 0.00 | 0.00 | 58 | 1012.0 |
| 20260906014003 | 90 | 97 | 3.0 | 7.0 | 0.00 | 0.00 | 0.00 | 58 | 1012.0 |
| 20260906013504 | 90 | 104 | 3.0 | 10.0 | 0.00 | 0.00 | 0.00 | 57 | 1012.1 |
| 20260906013004 | 91 | 106 | 3.0 | 10.0 | 0.00 | 0.00 | 0.00 | 57 | 1012.0 |
| 20260906012504 | 91 | 96 | 3.0 | 9.0 | 0.00 | 0.00 | 0.00 | 57 | 1012.0 |
| 20260906012003 | 91 | 96 | 3.0 | 9.0 | 0.00 | 0.00 | 0.00 | 56 | 1011.9 |
| 20260906011504 | 91 | 97 | 4.0 | 10.0 | 0.00 | 0.00 | 0.00 | 56 | 1012.0 |
| 20260906011004 | 92 | 94 | 3.0 | 10.0 | 0.00 | 0.00 | 0.00 | 55 | 1011.9 |
| 20260906010503 | 92 | 94 | 3.0 | 9.0 | 0.00 | 0.00 | 0.00 | 54 | 1011.8 |
| 20260906010004 | 92 | 95 | 2.0 | 9.0 | 0.00 | 0.00 | 0.00 | 53 | 1011.7 |
| 20260906005503 | 93 | 102 | 2.0 | 9.0 | 0.00 | 0.00 | 0.00 | 52 | 1011.8 |
| 20260906005003 | 93 | 103 | 2.0 | 9.0 | 0.00 | 0.00 | 0.00 | 51 | 1011.7 |
| 20260906004504 | 93 | 93 | 2.0 | 7.0 | 0.00 | 0.00 | 0.00 | 50 | 1011.7 |
| 20260906004004 | 94 | 94 | 2.0 | 7.0 | 0.00 | 0.00 | 0.00 | 49 | 1011.8 |
| 20260906003503 | 94 | 103 | 3.0 | 9.0 | 0.00 | 0.00 | 0.00 | 49 | 1011.7 |
| 20260906003003 | 94 | 97 | 3.0 | 9.0 | 0.00 | 0.00 | 0.00 | 48 | 1011.7 |
| 20260906002504 | 95 | 90 | 2.0 | 7.0 | 0.00 | 0.00 | 0.00 | 49 | 1011.6 |
| 20260906002004 | 95 | 97 | 2.0 | 7.0 | 0.00 | 0.00 | 0.00 | 48 | 1011.5 |
| 20260906001503 | 95 | 108 | 2.0 | 7.0 | 0.00 | 0.00 | 0.00 | 46 | 1011.4 |
| 20260906001003 | 95 | 120 | 1.0 | 4.0 | 0.00 | 0.00 | 0.00 | 45 | 1011.5 |
| 20260906000504 | 96 | 120 | 1.0 | 4.0 | 0.00 | 0.00 | 0.00 | 45 | 1011.5 |
| 20260906000004 | 96 | 111 | 2.0 | 7.0 | 0.00 | 0.00 | 0.00 | 44 | 1011.4 |
| 20260905235503 | 96 | 109 | 1.0 | 7.0 | 0.00 | 0.00 | 0.00 | 44 | 1011.3 |
| 20260905234504 | 96 | 0 | 0.0 | 3.0 | 0.00 | 0.00 | 0.00 | 45 | 1011.2 |
| 20260905233503 | 96 | 135 | 1.0 | 4.0 | 0.00 | 0.00 | 0.00 | 44 | 1011.2 |
| 20260905233004 | 96 | 0 | 0.0 | 2.0 | 0.00 | 0.00 | 0.00 | 44 | 1011.2 |
| 20260905232504 | 96 | 132 | 1.0 | 4.0 | 0.00 | 0.00 | 0.00 | 44 | 1011.2 |
| 20260905231503 | 97 | 130 | 1.0 | 4.0 | 0.00 | 0.00 | 0.00 | 43 | 1011.3 |
| 20260905231004 | 98 | 130 | 1.0 | 4.0 | 0.00 | 0.00 | 0.00 | 41 | 1011.4 |
| 20260905230504 | 98 | 130 | 1.0 | 4.0 | 0.00 | 0.00 | 0.00 | 41 | 1011.3 |
| 20260905230003 | 99 | 122 | 1.0 | 7.0 | 0.00 | 0.00 | 0.00 | 40 | 1011.3 |
| 20260905225504 | 99 | 101 | 1.0 | 7.0 | 0.00 | 0.00 | 0.00 | 40 | 1011.3 |
| 20260905225004 | 99 | 88 | 1.0 | 5.0 | 0.00 | 0.00 | 0.00 | 39 | 1011.3 |
| 20260905224504 | 100 | 87 | 1.0 | 3.0 | 0.00 | 0.00 | 0.00 | 39 | 1011.2 |
| 20260905224003 | 100 | 0 | 0.0 | 2.0 | 0.00 | 0.00 | 0.00 | 39 | 1011.3 |
| 20260905223504 | 100 | 0 | 0.0 | 2.0 | 0.00 | 0.00 | 0.00 | 40 | 1011.3 |
| 20260905223004 | 100 | 0 | 0.0 | 3.0 | 0.00 | 0.00 | 0.00 | 40 | 1011.2 |
| 20260905222003 | 99 | 0 | 0.0 | 3.0 | 0.00 | 0.00 | 0.00 | 41 | 1011.3 |
| 20260905221504 | 98 | 85 | 1.0 | 3.0 | 0.00 | 0.00 | 0.00 | 40 | 1011.3 |
| 20260905221004 | 98 | 85 | 1.0 | 3.0 | 0.00 | 0.00 | 0.00 | 41 | 1011.6 |
| 20260905220003 | 98 | 85 | 1.0 | 5.0 | 0.00 | 0.00 | 0.00 | 40 | 1011.6 |
| 20260905215504 | 98 | 85 | 1.0 | 5.0 | 0.00 | 0.00 | 0.00 | 41 | 1011.7 |
| 20260905215004 | 98 | 94 | 1.0 | 5.0 | 0.00 | 0.00 | 0.00 | 40 | 1011.7 |
| 20260905214503 | 99 | 112 | 1.0 | 5.0 | 0.00 | 0.00 | 0.00 | 39 | 1011.7 |
| 20260905214003 | 100 | 133 | 1.0 | 4.0 | 0.00 | 0.00 | 0.00 | 39 | 1011.6 |
| 20260905213504 | 100 | 135 | 1.0 | 3.0 | 0.00 | 0.00 | 0.00 | 39 | 1011.6 |
| 20260905213004 | 100 | 129 | 1.0 | 3.0 | 0.00 | 0.00 | 0.00 | 39 | 1011.6 |
| 20260905212503 | 100 | 122 | 1.0 | 3.0 | 0.00 | 0.00 | 0.00 | 40 | 1011.7 |
| 20260905212004 | 99 | 116 | 1.0 | 3.0 | 0.00 | 0.00 | 0.00 | 40 | 1011.8 |
| 20260905211504 | 99 | 141 | 1.0 | 4.0 | 0.00 | 0.00 | 0.00 | 40 | 1011.8 |
| 20260905211003 | 99 | 181 | 1.0 | 4.0 | 0.00 | 0.00 | 0.00 | 40 | 1011.7 |
| 20260905210503 | 99 | 194 | 1.0 | 4.0 | 0.00 | 0.00 | 0.00 | 40 | 1011.9 |
| 20260905210004 | 99 | 194 | 1.0 | 4.0 | 0.00 | 0.00 | 0.00 | 40 | 1012.0 |
| 20260905205003 | 99 | 196 | 1.0 | 4.0 | 0.00 | 0.00 | 0.00 | 41 | 1012.2 |
| 20260905204503 | 100 | 198 | 1.0 | 4.0 | 0.00 | 0.00 | 0.00 | 40 | 1012.2 |
| 20260905204004 | 99 | 197 | 1.0 | 5.0 | 0.00 | 0.00 | 0.00 | 42 | 1012.3 |
| 20260905203503 | 99 | 197 | 1.0 | 5.0 | 0.00 | 0.00 | 0.00 | 42 | 1012.4 |
| 20260905202503 | 99 | 201 | 1.0 | 6.0 | 0.00 | 0.00 | 0.00 | 41 | 1012.7 |
| 20260905202004 | 99 | 205 | 1.0 | 6.0 | 0.00 | 0.00 | 0.00 | 41 | 1012.6 |
| 20260905201504 | 99 | 202 | 1.0 | 4.0 | 0.00 | 0.00 | 0.00 | 41 | 1012.8 |
| 20260905201003 | 99 | 182 | 1.0 | 4.0 | 0.00 | 0.00 | 0.00 | 43 | 1012.9 |
| 20260905200504 | 98 | 168 | 1.0 | 4.0 | 0.00 | 0.00 | 0.00 | 42 | 1012.9 |
| 20260905200004 | 98 | 178 | 1.0 | 6.0 | 0.00 | 0.00 | 0.00 | 43 | 1013.1 |
| 20260905195503 | 98 | 176 | 1.0 | 6.0 | 0.00 | 0.00 | 0.00 | 45 | 1013.2 |
| 20260905195004 | 98 | 150 | 1.0 | 5.0 | 0.00 | 0.00 | 0.00 | 44 | 1013.1 |
| 20260905194504 | 97 | 142 | 1.0 | 4.0 | 0.00 | 0.00 | 0.00 | 44 | 1013.1 |
| 20260905194004 | 97 | 143 | 1.0 | 3.0 | 0.00 | 0.00 | 0.00 | 44 | 1013.3 |
| 20260905193503 | 97 | 143 | 1.0 | 3.0 | 0.00 | 0.00 | 0.00 | 45 | 1013.5 |
| 20260905193004 | 97 | 141 | 1.0 | 4.0 | 0.00 | 0.00 | 0.00 | 45 | 1013.4 |
| 20260905192504 | 96 | 133 | 1.0 | 4.0 | 0.00 | 0.00 | 0.00 | 45 | 1013.6 |
| 20260905192004 | 97 | 125 | 1.0 | 4.0 | 0.00 | 0.00 | 0.00 | 44 | 1013.7 |
| 20260905191503 | 97 | 125 | 1.0 | 4.0 | 0.00 | 0.00 | 0.00 | 46 | 1013.7 |
| 20260905190004 | 95 | 137 | 1.0 | 4.0 | 0.00 | 0.00 | 0.00 | 45 | 1013.9 |
| 20260905185503 | 95 | 145 | 1.0 | 4.0 | 0.00 | 0.00 | 0.00 | 46 | 1014.0 |
| 20260905185004 | 95 | 144 | 1.0 | 3.0 | 0.00 | 0.00 | 0.00 | 46 | 1014.2 |
| 20260905184504 | 94 | 170 | 2.0 | 6.0 | 0.00 | 0.00 | 0.00 | 48 | 1014.3 |
| 20260905184003 | 94 | 159 | 2.0 | 6.0 | 0.00 | 0.00 | 0.00 | 48 | 1014.4 |
| 20260905183503 | 94 | 125 | 1.0 | 5.0 | 0.00 | 0.00 | 0.00 | 51 | 1014.5 |
| 20260905183004 | 95 | 177 | 2.0 | 5.0 | 0.00 | 0.00 | 0.00 | 48 | 1014.6 |
| 20260905182507 | 95 | 223 | 1.0 | 5.0 | 0.00 | 0.00 | 0.00 | 49 | 1014.7 |
| 20260905182004 | 95 | 235 | 1.0 | 9.0 | 0.00 | 0.00 | 0.00 | 48 | 1014.7 |
| 20260905181504 | 94 | 118 | 2.0 | 9.0 | 0.00 | 0.00 | 0.00 | 50 | 1014.9 |
| 20260905181004 | 94 | 109 | 2.0 | 5.0 | 0.00 | 0.00 | 0.00 | 50 | 1014.9 |
| 20260905180503 | 94 | 125 | 2.0 | 5.0 | 0.00 | 0.00 | 0.00 | 50 | 1015.1 |
| 20260905180004 | 94 | 108 | 2.0 | 5.0 | 0.00 | 0.00 | 0.00 | 51 | 1015.1 |
| 20260905175504 | 93 | 99 | 2.0 | 6.0 | 0.00 | 0.00 | 0.00 | 51 | 1015.2 |
| 20260905175003 | 94 | 116 | 1.0 | 6.0 | 0.00 | 0.00 | 0.00 | 53 | 1015.3 |
| 20260905174004 | 94 | 153 | 1.0 | 4.0 | 0.00 | 0.00 | 0.00 | 55 | 1015.4 |
| 20260905173503 | 93 | 149 | 1.0 | 3.0 | 0.00 | 0.00 | 0.00 | 52 | 1015.4 |
| 20260905173004 | 93 | 143 | 1.0 | 4.0 | 0.00 | 0.00 | 0.00 | 54 | 1015.5 |
| 20260905172504 | 93 | 174 | 1.0 | 4.0 | 0.00 | 0.00 | 0.00 | 55 | 1015.6 |
| 20260905171503 | 92 | 118 | 1.0 | 6.0 | 0.00 | 0.00 | 0.00 | 58 | 1015.6 |
| 20260905170504 | 91 | 76 | 1.0 | 4.0 | 0.00 | 0.00 | 0.00 | 60 | 1015.7 |
| 20260905170004 | 91 | 96 | 1.0 | 4.0 | 0.00 | 0.00 | 0.00 | 61 | 1015.9 |
| 20260905165504 | 91 | 135 | 1.0 | 4.0 | 0.00 | 0.00 | 0.00 | 61 | 1015.8 |
| 20260905165004 | 90 | 162 | 1.0 | 5.0 | 0.00 | 0.00 | 0.00 | 61 | 1015.8 |
| 20260905164503 | 91 | 132 | 2.0 | 6.0 | 0.00 | 0.00 | 0.00 | 61 | 1015.9 |
| 20260905164003 | 90 | 153 | 2.0 | 6.0 | 0.00 | 0.00 | 0.00 | 61 | 1015.9 |
| 20260905163504 | 90 | 186 | 1.0 | 5.0 | 0.00 | 0.00 | 0.00 | 62 | 1015.8 |
| 20260905162503 | 90 | 199 | 1.0 | 5.0 | 0.00 | 0.00 | 0.00 | 65 | 1015.9 |
| 20260905161504 | 89 | 126 | 1.0 | 5.0 | 0.00 | 0.00 | 0.00 | 64 | 1015.8 |
| 20260905161003 | 89 | 94 | 1.0 | 7.0 | 0.00 | 0.00 | 0.00 | 67 | 1015.8 |
| 20260905160504 | 89 | 135 | 1.0 | 7.0 | 0.00 | 0.00 | 0.00 | 68 | 1015.9 |
| 20260905160004 | 89 | 188 | 1.0 | 6.0 | 0.00 | 0.00 | 0.00 | 66 | 1015.9 |
| 20260905155503 | 89 | 199 | 1.0 | 5.0 | 0.00 | 0.00 | 0.00 | 69 | 1015.9 |
| 20260905154504 | 88 | 244 | 1.0 | 4.0 | 0.00 | 0.00 | 0.00 | 69 | 1015.8 |
| 20260905153004 | 87 | 202 | 1.0 | 4.0 | 0.00 | 0.00 | 0.00 | 72 | 1015.9 |
| 20260905152504 | 87 | 190 | 1.0 | 3.0 | 0.00 | 0.00 | 0.00 | 72 | 1015.8 |
| 20260905152003 | 87 | 188 | 1.0 | 3.0 | 0.00 | 0.00 | 0.00 | 73 | 1015.9 |
| 20260905151004 | 86 | 186 | 1.0 | 3.0 | 0.00 | 0.00 | 0.00 | 75 | 1015.9 |
| 20260905150504 | 86 | 186 | 1.0 | 3.0 | 0.00 | 0.00 | 0.00 | 75 | 1016.0 |
| 20260905150003 | 86 | 186 | 1.0 | 2.0 | 0.00 | 0.00 | 0.00 | 76 | 1016.0 |
| 20260905145503 | 85 | 186 | 1.0 | 3.0 | 0.00 | 0.00 | 0.00 | 78 | 1015.9 |
| 20260905145004 | 85 | 186 | 1.0 | 3.0 | 0.00 | 0.00 | 0.00 | 78 | 1015.9 |
| 20260905144503 | 84 | 0 | 0.0 | 4.0 | 0.00 | 0.00 | 0.00 | 79 | 1015.9 |
| 20260905144003 | 84 | 194 | 1.0 | 5.0 | 0.00 | 0.00 | 0.00 | 80 | 1015.8 |
| 20260905143504 | 84 | 211 | 1.0 | 5.0 | 0.00 | 0.00 | 0.00 | 81 | 1016.0 |
| 20260905143003 | 83 | 209 | 1.0 | 5.0 | 0.00 | 0.00 | 0.00 | 82 | 1015.9 |
| 20260905142504 | 83 | 194 | 1.0 | 5.0 | 0.00 | 0.00 | 0.00 | 83 | 1015.8 |
| 20260905142004 | 82 | 186 | 1.0 | 3.0 | 0.00 | 0.00 | 0.00 | 84 | 1015.8 |
| 20260905141003 | 81 | 203 | 1.0 | 7.0 | 0.00 | 0.00 | 0.00 | 86 | 1015.7 |
| 20260905140004 | 80 | 210 | 1.0 | 4.0 | 0.00 | 0.00 | 0.00 | 88 | 1015.6 |
| 20260905134503 | 79 | 210 | 1.0 | 4.0 | 0.00 | 0.00 | 0.00 | 90 | 1015.5 |
| 20260905134004 | 79 | 0 | 0.0 | 2.0 | 0.00 | 0.00 | 0.00 | 90 | 1015.5 |
| 20260905133503 | 79 | 0 | 0.0 | 4.0 | 0.00 | 0.00 | 0.00 | 90 | 1015.5 |
| 20260905133003 | 79 | 0 | 0.0 | 4.0 | 0.00 | 0.00 | 0.00 | 89 | 1015.4 |
| 20260905132504 | 78 | 0 | 0.0 | 0.0 | 0.00 | 0.00 | 0.00 | 89 | 1015.4 |
| 20260905132004 | 78 | 0 | 0.0 | 0.0 | 0.00 | 0.00 | 0.00 | 89 | 1015.2 |
| 20260905131504 | 78 | 0 | 0.0 | 0.0 | 0.00 | 0.00 | 0.00 | 89 | 1015.2 |
| 20260905130004 | 77 | 0 | 0.0 | 0.0 | 0.00 | 0.00 | 0.00 | 89 | 1015.0 |
| 20260905125503 | 76 | 0 | 0.0 | 0.0 | 0.00 | 0.00 | 0.00 | 89 | 1015.0 |
| 20260905125003 | 76 | 0 | 0.0 | 0.0 | 0.00 | 0.00 | 0.00 | 89 | 1014.9 |
| 20260905124503 | 76 | 0 | 0.0 | 0.0 | 0.00 | 0.00 | 0.00 | 89 | 1014.9 |
| 20260905124004 | 76 | 0 | 0.0 | 0.0 | 0.00 | 0.00 | 0.00 | 90 | 1014.9 |
| 20260905123503 | 76 | 0 | 0.0 | 0.0 | 0.00 | 0.00 | 0.00 | 90 | 1014.8 |
| 20260905123003 | 76 | 0 | 0.0 | 0.0 | 0.00 | 0.00 | 0.00 | 90 | 1014.7 |
| 20260905122504 | 76 | 0 | 0.0 | 0.0 | 0.00 | 0.00 | 0.00 | 90 | 1014.7 |
| 20260905121503 | 76 | 0 | 0.0 | 0.0 | 0.00 | 0.00 | 0.00 | 90 | 1014.7 |
| 20260905121003 | 76 | 0 | 0.0 | 0.0 | 0.00 | 0.00 | 0.00 | 90 | 1014.7 |
| 20260905120504 | 76 | 0 | 0.0 | 0.0 | 0.00 | 0.00 | 0.00 | 90 | 1014.6 |